NFC9343 DAAG-GMMX

Flight info

Callsign NFC9343
Flight time 1h 37m
Altitude 32000
Route CHE1C DAHRA UA411 FES/N0470F310 UG850 OBOGA OBOGA4A
Aircraft B77L/H-SDE1E2E3FGHIJ2J3J4J5M1RWXY/LB1D1

Departure

Time 2026-04-27 17:14
Airport Houari Boumediene Airport (DAAG)

Arrival

Time 2026-04-27 18:51
Airport Marrakesh Menara Airport (GMMX)
Time Latitude Longitude Altitude Speed Heading
2026-04-27 16:54 36.69520 3.20595 74 ft 0 kts 183°
2026-04-27 17:06 36.69526 3.20595 64 ft 4 kts 182°
2026-04-27 17:06 36.69553 3.20596 67 ft 4 kts 179°
2026-04-27 17:06 36.69570 3.20596 66 ft 2 kts 181°
2026-04-27 17:06 36.69593 3.20593 69 ft 4 kts 142°
2026-04-27 17:07 36.69602 3.20557 64 ft 4 kts 90°
2026-04-27 17:07 36.69602 3.20551 64 ft 1 kts 92°
2026-04-27 17:09 36.69601 3.20578 64 ft 9 kts 91°
2026-04-27 17:09 36.69599 3.20733 74 ft 14 kts 94°
2026-04-27 17:10 36.69563 3.20801 65 ft 15 kts 147°
2026-04-27 17:10 36.69471 3.20847 69 ft 15 kts 162°
2026-04-27 17:10 36.69391 3.20914 64 ft 15 kts 109°
2026-04-27 17:10 36.69388 3.21036 68 ft 15 kts 88°
2026-04-27 17:11 36.69389 3.21163 68 ft 15 kts 92°
2026-04-27 17:11 36.69385 3.21417 74 ft 15 kts 90°
2026-04-27 17:11 36.69385 3.21543 68 ft 15 kts 90°
2026-04-27 17:12 36.69385 3.21797 75 ft 15 kts 90°
2026-04-27 17:12 36.69385 3.21922 78 ft 15 kts 89°
2026-04-27 17:12 36.69406 3.22044 86 ft 15 kts 58°
2026-04-27 17:13 36.69482 3.22174 87 ft 20 kts 53°
2026-04-27 17:13 36.69575 3.22324 87 ft 30 kts 52°
2026-04-27 17:13 36.69801 3.22696 87 ft 92 kts 53°
2026-04-27 17:13 36.70343 3.23574 105 ft 167 kts 52°
2026-04-27 17:14 36.71080 3.24777 1093 ft 163 kts 55°
2026-04-27 17:14 36.71798 3.25861 2084 ft 169 kts 33°
2026-04-27 17:14 36.72939 3.26326 2529 ft 188 kts
2026-04-27 17:14 36.74325 3.26145 2854 ft 219 kts 342°
2026-04-27 17:15 36.75679 3.25018 3095 ft 255 kts 307°
2026-04-27 17:15 36.76533 3.23066 3668 ft 266 kts 298°
2026-04-27 17:15 36.77421 3.21002 4585 ft 272 kts 300°
2026-04-27 17:15 36.78334 3.18921 5582 ft 274 kts 299°
2026-04-27 17:16 36.79210 3.16815 6586 ft 272 kts 291°
2026-04-27 17:16 36.79432 3.14480 7363 ft 275 kts 259°
2026-04-27 17:16 36.78957 3.12189 8299 ft 273 kts 254°
2026-04-27 17:16 36.78447 3.09904 9247 ft 275 kts 254°
2026-04-27 17:17 36.77942 3.07580 10150 ft 278 kts 255°
2026-04-27 17:17 36.77439 3.05213 10839 ft 290 kts 255°
2026-04-27 17:17 36.76914 3.02701 11060 ft 317 kts 255°
2026-04-27 17:18 36.75737 2.96932 11764 ft 362 kts 255°
2026-04-27 17:18 36.75118 2.93845 12503 ft 371 kts 255°
2026-04-27 17:18 36.74490 2.90697 13327 ft 378 kts 256°
2026-04-27 17:18 36.73857 2.87506 14282 ft 379 kts 256°
2026-04-27 17:19 36.73221 2.84302 15123 ft 383 kts 256°
2026-04-27 17:19 36.72576 2.81052 15839 ft 390 kts 256°
2026-04-27 17:19 36.71919 2.77749 16589 ft 395 kts 256°
2026-04-27 17:19 36.71253 2.74399 17359 ft 399 kts 256°
2026-04-27 17:20 36.70583 2.71039 18196 ft 402 kts 256°
2026-04-27 17:20 36.69915 2.67690 18849 ft 406 kts 256°
2026-04-27 17:20 36.69227 2.64254 19510 ft 410 kts 256°
2026-04-27 17:20 36.68534 2.60792 20194 ft 414 kts 256°
2026-04-27 17:21 36.67835 2.57308 20878 ft 417 kts 256°
2026-04-27 17:21 36.67127 2.53787 21548 ft 420 kts 256°
2026-04-27 17:21 36.66414 2.50244 22198 ft 424 kts 256°
2026-04-27 17:21 36.65692 2.46664 22837 ft 428 kts 256°
2026-04-27 17:22 36.64964 2.43062 23483 ft 431 kts 256°
2026-04-27 17:22 36.64229 2.39426 24029 ft 435 kts 256°
2026-04-27 17:22 36.63486 2.35760 24596 ft 437 kts 256°
2026-04-27 17:22 36.62749 2.32131 25173 ft 439 kts 256°
2026-04-27 17:23 36.62000 2.28444 25747 ft 441 kts 256°
2026-04-27 17:23 36.61242 2.24719 26261 ft 445 kts 256°
2026-04-27 17:23 36.60471 2.20978 26765 ft 448 kts 255°
2026-04-27 17:23 36.59513 2.17270 27285 ft 452 kts 250°
2026-04-27 17:24 36.58292 2.13654 27806 ft 455 kts 248°
2026-04-27 17:24 36.57041 2.10037 28314 ft 457 kts 248°
2026-04-27 17:24 36.55787 2.06395 28851 ft 458 kts 248°
2026-04-27 17:24 36.54537 2.02748 29558 ft 456 kts 248°
2026-04-27 17:25 36.53307 1.99143 30278 ft 452 kts 248°
2026-04-27 17:25 36.52084 1.95547 30873 ft 450 kts 248°
2026-04-27 17:25 36.50885 1.92022 31387 ft 449 kts 248°
2026-04-27 17:25 36.49668 1.88443 31885 ft 449 kts 248°
2026-04-27 17:26 36.48446 1.84851 32014 ft 454 kts 248°
2026-04-27 17:26 36.47217 1.81245 32008 ft 452 kts 248°
2026-04-27 17:26 36.44777 1.74104 32006 ft 446 kts 248°
2026-04-27 17:27 36.42348 1.67015 32002 ft 447 kts 248°
2026-04-27 17:27 36.39911 1.59913 31999 ft 448 kts 248°
2026-04-27 17:28 36.37483 1.52853 32007 ft 448 kts 248°
2026-04-27 17:29 36.33848 1.42148 32001 ft 449 kts 248°
2026-04-27 17:29 36.31456 1.34979 31998 ft 450 kts 248°
2026-04-27 17:30 36.29076 1.27872 31990 ft 450 kts 248°
2026-04-27 17:30 36.25458 1.17132 31989 ft 450 kts 248°
2026-04-27 17:31 36.23043 1.09988 31985 ft 450 kts 248°
2026-04-27 17:31 36.20621 1.02843 31981 ft 449 kts 248°
2026-04-27 17:32 36.17005 0.92204 31975 ft 449 kts 248°
2026-04-27 17:33 36.14576 0.85077 31971 ft 449 kts 247°
2026-04-27 17:33 36.12146 0.77963 31972 ft 449 kts 247°
2026-04-27 17:34 36.09713 0.70859 31970 ft 449 kts 247°
2026-04-27 17:34 36.07290 0.63801 31972 ft 449 kts 247°
2026-04-27 17:35 36.04845 0.56693 31967 ft 449 kts 247°
2026-04-27 17:35 36.02398 0.49596 31970 ft 449 kts 247°
2026-04-27 17:36 35.99942 0.42492 31973 ft 450 kts 247°
2026-04-27 17:36 35.97500 0.35442 31970 ft 450 kts 247°
2026-04-27 17:37 35.95037 0.28348 31972 ft 450 kts 247°
2026-04-27 17:37 35.92567 0.21250 31968 ft 450 kts 246°
2026-04-27 17:38 35.90092 0.14153 31973 ft 450 kts 246°
2026-04-27 17:38 35.87580 0.07072 31971 ft 451 kts 246°
2026-04-27 17:39 35.85058 0.00060 31971 ft 451 kts 246°
2026-04-27 17:39 35.82517 -0.07002 31974 ft 451 kts 246°
2026-04-27 17:40 35.79974 -0.14063 31974 ft 451 kts 246°
2026-04-27 17:40 35.77428 -0.21126 31977 ft 451 kts 246°
2026-04-27 17:41 35.74895 -0.28137 31976 ft 451 kts 246°
2026-04-27 17:41 35.72346 -0.35175 31988 ft 450 kts 245°
2026-04-27 17:42 35.69796 -0.42199 31967 ft 449 kts 245°
2026-04-27 17:42 35.67246 -0.49210 31970 ft 448 kts 245°
2026-04-27 17:43 35.64700 -0.56197 31966 ft 448 kts 245°
2026-04-27 17:43 35.62129 -0.63117 31966 ft 448 kts 242°
2026-04-27 17:44 35.58802 -0.69577 31966 ft 448 kts 232°
2026-04-27 17:44 35.54939 -0.75582 31974 ft 448 kts 232°
2026-04-27 17:45 35.51080 -0.81597 31972 ft 449 kts 232°
2026-04-27 17:45 35.47235 -0.87619 31970 ft 448 kts 232°
2026-04-27 17:46 35.43418 -0.93603 31960 ft 447 kts 232°
2026-04-27 17:46 35.39586 -0.99602 31962 ft 447 kts 232°
2026-04-27 17:47 35.35753 -1.05592 31965 ft 446 kts 232°
2026-04-27 17:47 35.31924 -1.11564 31953 ft 446 kts 232°
2026-04-27 17:48 35.28086 -1.17540 31960 ft 446 kts 232°
2026-04-27 17:48 35.24271 -1.23471 31951 ft 447 kts 232°
2026-04-27 17:49 35.20432 -1.29428 31944 ft 446 kts 232°
2026-04-27 17:49 35.16585 -1.35387 31937 ft 445 kts 232°
2026-04-27 17:50 35.12749 -1.41320 31940 ft 445 kts 232°
2026-04-27 17:50 35.07017 -1.50166 31941 ft 445 kts 232°
2026-04-27 17:51 35.03176 -1.56082 31944 ft 445 kts 231°
2026-04-27 17:51 34.99333 -1.61990 31938 ft 445 kts 231°
2026-04-27 17:52 34.95487 -1.67894 31936 ft 444 kts 231°
2026-04-27 17:52 34.91644 -1.73784 31945 ft 444 kts 231°
2026-04-27 17:53 34.87825 -1.79629 31948 ft 444 kts 231°
2026-04-27 17:53 34.83965 -1.85499 31948 ft 444 kts 230°
2026-04-27 17:54 34.79980 -1.91243 31977 ft 444 kts 232°
2026-04-27 17:54 34.76814 -1.97688 31973 ft 445 kts 243°
2026-04-27 17:55 34.74676 -2.04753 31976 ft 446 kts 251°
2026-04-27 17:55 34.72851 -2.11917 31963 ft 447 kts 251°
2026-04-27 17:56 34.70992 -2.19120 31940 ft 447 kts 250°
2026-04-27 17:56 34.69106 -2.26324 31947 ft 447 kts 250°
2026-04-27 17:57 34.67211 -2.33522 31945 ft 448 kts 250°
2026-04-27 17:57 34.65325 -2.40667 31940 ft 448 kts 250°
2026-04-27 17:58 34.63416 -2.47881 31938 ft 448 kts 250°
2026-04-27 17:58 34.61507 -2.55082 31931 ft 448 kts 250°
2026-04-27 17:59 34.59588 -2.62268 31926 ft 447 kts 249°
2026-04-27 17:59 34.57616 -2.69430 31927 ft 448 kts 249°
2026-04-27 18:00 34.55656 -2.76547 31933 ft 448 kts 249°
2026-04-27 18:00 34.53710 -2.83735 31925 ft 449 kts 249°
2026-04-27 18:01 34.51770 -2.90934 31933 ft 449 kts 249°
2026-04-27 18:01 34.49823 -2.98127 31928 ft 449 kts 249°
2026-04-27 18:02 34.47883 -3.05265 31927 ft 449 kts 249°
2026-04-27 18:02 34.45919 -3.12470 31929 ft 450 kts 249°
2026-04-27 18:03 34.43950 -3.19675 31927 ft 451 kts 249°
2026-04-27 18:03 34.41976 -3.26879 31922 ft 451 kts 249°
2026-04-27 18:04 34.39997 -3.34084 31924 ft 451 kts 249°
2026-04-27 18:04 34.38027 -3.41239 31926 ft 451 kts 249°
2026-04-27 18:05 34.36040 -3.48440 31927 ft 452 kts 249°
2026-04-27 18:05 34.34073 -3.55672 31918 ft 453 kts 249°
2026-04-27 18:06 34.32112 -3.62918 31917 ft 453 kts 249°
2026-04-27 18:06 34.30158 -3.70108 31916 ft 453 kts 249°
2026-04-27 18:07 34.28185 -3.77340 31914 ft 453 kts 249°
2026-04-27 18:07 34.26207 -3.84569 31917 ft 453 kts 249°
2026-04-27 18:08 34.24217 -3.91822 31915 ft 455 kts 249°
2026-04-27 18:08 34.22223 -3.99071 31921 ft 455 kts 249°
2026-04-27 18:09 34.20235 -4.06284 31917 ft 455 kts 249°
2026-04-27 18:09 34.18232 -4.13534 31885 ft 456 kts 249°
2026-04-27 18:10 34.16195 -4.20783 31900 ft 455 kts 248°
2026-04-27 18:10 34.14079 -4.27981 31867 ft 455 kts 248°
2026-04-27 18:11 34.11974 -4.35177 31892 ft 455 kts 248°
2026-04-27 18:11 34.09901 -4.42344 31865 ft 456 kts 248°
2026-04-27 18:12 34.07818 -4.49571 31862 ft 456 kts 248°
2026-04-27 18:12 34.05731 -4.56789 31865 ft 456 kts 248°
2026-04-27 18:13 34.03636 -4.64005 31851 ft 456 kts 248°
2026-04-27 18:13 34.01534 -4.71230 31868 ft 457 kts 248°
2026-04-27 18:14 33.99426 -4.78456 31883 ft 457 kts 248°
2026-04-27 18:14 33.97329 -4.85629 31882 ft 457 kts 248°
2026-04-27 18:15 33.95216 -4.92840 31886 ft 457 kts 248°
2026-04-27 18:15 33.92800 -4.99894 31883 ft 454 kts 239°
2026-04-27 18:16 33.89333 -5.06206 31885 ft 452 kts 229°
2026-04-27 18:16 33.85211 -5.11920 31891 ft 452 kts 227°
2026-04-27 18:17 33.81066 -5.17600 31886 ft 452 kts 227°
2026-04-27 18:17 33.76966 -5.23254 31876 ft 452 kts 227°
2026-04-27 18:18 33.72850 -5.28953 31878 ft 451 kts 227°
2026-04-27 18:18 33.68737 -5.34643 31876 ft 451 kts 227°
2026-04-27 18:19 33.64613 -5.40338 31881 ft 453 kts 227°
2026-04-27 18:19 33.60474 -5.46045 31884 ft 454 kts 227°
2026-04-27 18:20 33.56353 -5.51717 31881 ft 455 kts 227°
2026-04-27 18:20 33.52192 -5.57435 31876 ft 455 kts 227°
2026-04-27 18:21 33.48032 -5.63143 31874 ft 454 kts 227°
2026-04-27 18:21 33.43885 -5.68825 31853 ft 453 kts 227°
2026-04-27 18:22 33.39738 -5.74499 31851 ft 454 kts 227°
2026-04-27 18:22 33.35604 -5.80146 31842 ft 455 kts 227°
2026-04-27 18:23 33.31428 -5.85835 31855 ft 455 kts 227°
2026-04-27 18:23 33.27227 -5.91517 31840 ft 456 kts 227°
2026-04-27 18:24 33.23021 -5.97196 31830 ft 457 kts 227°
2026-04-27 18:24 33.18806 -6.02884 31831 ft 458 kts 227°
2026-04-27 18:25 33.14612 -6.08536 31827 ft 458 kts 227°
2026-04-27 18:25 33.10383 -6.14229 31826 ft 458 kts 226°
2026-04-27 18:26 33.06153 -6.19911 31815 ft 458 kts 226°
2026-04-27 18:26 33.01919 -6.25590 31799 ft 458 kts 226°
2026-04-27 18:27 32.97711 -6.31226 31799 ft 458 kts 226°
2026-04-27 18:27 32.93471 -6.36899 31800 ft 459 kts 226°
2026-04-27 18:28 32.89221 -6.42583 31802 ft 460 kts 226°
2026-04-27 18:28 32.85054 -6.48173 31689 ft 441 kts 226°
2026-04-27 18:29 32.83027 -6.50891 31328 ft 435 kts 226°
2026-04-27 18:29 32.81029 -6.53567 30922 ft 431 kts 226°
2026-04-27 18:29 32.79072 -6.56185 30495 ft 428 kts 226°
2026-04-27 18:29 32.77101 -6.58819 30028 ft 424 kts 226°
2026-04-27 18:30 32.75146 -6.61429 29499 ft 422 kts 226°
2026-04-27 18:30 32.73206 -6.64018 29002 ft 419 kts 226°
2026-04-27 18:30 32.71279 -6.66587 28552 ft 415 kts 226°
2026-04-27 18:30 32.69365 -6.69138 28046 ft 411 kts 226°
2026-04-27 18:31 32.67468 -6.71665 27612 ft 408 kts 226°
2026-04-27 18:31 32.65591 -6.74164 27152 ft 405 kts 226°
2026-04-27 18:31 32.63719 -6.76653 26700 ft 402 kts 226°
2026-04-27 18:31 32.61895 -6.79077 26264 ft 399 kts 226°
2026-04-27 18:32 32.60048 -6.81531 25817 ft 396 kts 226°
2026-04-27 18:32 32.58222 -6.83954 25390 ft 394 kts 226°
2026-04-27 18:32 32.56401 -6.86370 24985 ft 391 kts 226°
2026-04-27 18:32 32.54592 -6.88769 24548 ft 389 kts 225°
2026-04-27 18:33 32.52794 -6.91151 24124 ft 387 kts 225°
2026-04-27 18:33 32.51004 -6.93520 23691 ft 385 kts 226°
2026-04-27 18:33 32.49215 -6.95886 23231 ft 384 kts 226°
2026-04-27 18:33 32.47442 -6.98231 22765 ft 382 kts 225°
2026-04-27 18:34 32.45675 -7.00565 22320 ft 379 kts 225°
2026-04-27 18:34 32.43923 -7.02879 21901 ft 376 kts 225°
2026-04-27 18:34 32.42210 -7.05141 21492 ft 373 kts 225°
2026-04-27 18:34 32.40489 -7.07410 21085 ft 370 kts 225°
2026-04-27 18:35 32.38770 -7.09676 20676 ft 368 kts 226°
2026-04-27 18:35 32.37065 -7.11923 20277 ft 366 kts 225°
2026-04-27 18:35 32.35372 -7.14150 19885 ft 364 kts 225°
2026-04-27 18:35 32.33685 -7.16370 19488 ft 362 kts 225°
2026-04-27 18:36 32.32006 -7.18579 19076 ft 361 kts 225°
2026-04-27 18:36 32.30329 -7.20783 18675 ft 359 kts 225°
2026-04-27 18:36 32.28662 -7.22973 18287 ft 358 kts 226°
2026-04-27 18:36 32.26991 -7.25166 17836 ft 359 kts 226°
2026-04-27 18:37 32.25348 -7.27321 17402 ft 358 kts 226°
2026-04-27 18:37 32.23686 -7.29500 16988 ft 356 kts 226°
2026-04-27 18:37 32.22031 -7.31671 16572 ft 355 kts 226°
2026-04-27 18:37 32.20383 -7.33831 16171 ft 354 kts 226°
2026-04-27 18:38 32.18733 -7.35993 15775 ft 353 kts 225°
2026-04-27 18:38 32.17092 -7.38142 15375 ft 352 kts 225°
2026-04-27 18:38 32.15454 -7.40285 14975 ft 352 kts 226°
2026-04-27 18:38 32.13815 -7.42431 14553 ft 351 kts 226°
2026-04-27 18:39 32.12180 -7.44569 14177 ft 351 kts 225°
2026-04-27 18:39 32.10548 -7.46702 13783 ft 350 kts 225°
2026-04-27 18:39 32.08909 -7.48840 13348 ft 350 kts 225°
2026-04-27 18:39 32.07303 -7.50936 12925 ft 349 kts 225°
2026-04-27 18:40 32.05673 -7.53056 12519 ft 348 kts 225°
2026-04-27 18:40 32.04050 -7.55165 12111 ft 347 kts 225°
2026-04-27 18:40 32.02430 -7.57268 11714 ft 346 kts 224°
2026-04-27 18:40 32.00816 -7.59363 11322 ft 345 kts 225°
2026-04-27 18:41 31.99206 -7.61450 10940 ft 344 kts 227°
2026-04-27 18:41 31.97600 -7.63534 10549 ft 343 kts 227°
2026-04-27 18:41 31.96004 -7.65605 10339 ft 337 kts 227°
2026-04-27 18:41 31.94450 -7.67620 10197 ft 329 kts 227°
2026-04-27 18:42 31.92930 -7.69590 10046 ft 321 kts 227°
2026-04-27 18:42 31.91943 -7.70868 9946 ft 316 kts 227°
2026-04-27 18:42 31.89985 -7.73403 9682 ft 309 kts 227°
2026-04-27 18:42 31.88575 -7.75228 9493 ft 302 kts 228°
2026-04-27 18:43 31.87190 -7.77018 9374 ft 290 kts 227°
2026-04-27 18:43 31.85843 -7.78757 9045 ft 286 kts 227°
2026-04-27 18:43 31.84466 -7.80390 8698 ft 277 kts 216°
2026-04-27 18:43 31.82723 -7.81234 8174 ft 268 kts 187°
2026-04-27 18:44 31.80896 -7.81221 7657 ft 258 kts 176°
2026-04-27 18:44 31.79129 -7.81082 7373 ft 258 kts 177°
2026-04-27 18:44 31.77293 -7.80947 7098 ft 271 kts 176°
2026-04-27 18:44 31.75375 -7.80805 6776 ft 279 kts 176°
2026-04-27 18:45 31.73469 -7.80664 6489 ft 276 kts 177°
2026-04-27 18:45 31.71565 -7.80526 6196 ft 272 kts 177°
2026-04-27 18:45 31.69693 -7.80391 5880 ft 268 kts 177°
2026-04-27 18:45 31.67852 -7.80258 5570 ft 264 kts 178°
2026-04-27 18:46 31.66034 -7.80229 5242 ft 258 kts 192°
2026-04-27 18:46 31.64484 -7.81119 5156 ft 242 kts 221°
2026-04-27 18:46 31.63195 -7.82324 5014 ft 231 kts 220°
2026-04-27 18:46 31.61945 -7.83448 4748 ft 221 kts 219°
2026-04-27 18:47 31.60771 -7.84503 4510 ft 213 kts 219°
2026-04-27 18:47 31.59666 -7.85604 4236 ft 202 kts 236°
2026-04-27 18:47 31.59225 -7.87075 4081 ft 188 kts 268°
2026-04-27 18:47 31.59297 -7.88568 3841 ft 179 kts 276°
2026-04-27 18:48 31.59437 -7.89974 3594 ft 169 kts 277°
2026-04-27 18:48 31.59579 -7.91358 3352 ft 174 kts 277°
2026-04-27 18:48 31.59718 -7.92757 3285 ft 173 kts 276°
2026-04-27 18:48 31.59847 -7.94160 3243 ft 175 kts 275°
2026-04-27 18:49 31.59974 -7.95566 3193 ft 167 kts 276°
2026-04-27 18:49 31.60089 -7.96846 3065 ft 153 kts 275°
2026-04-27 18:49 31.60200 -7.98088 2611 ft 150 kts 275°
2026-04-27 18:49 31.60309 -7.99300 2074 ft 150 kts 278°
2026-04-27 18:50 31.60415 -8.00439 1775 ft 132 kts 277°
2026-04-27 18:50 31.60502 -8.01513 1676 ft 135 kts 275°
2026-04-27 18:50 31.60597 -8.02623 1555 ft 133 kts 277°
2026-04-27 18:50 31.60686 -8.03626 1537 ft 111 kts 276°
2026-04-27 18:51 31.60736 -8.04168 1541 ft 47 kts 276°
2026-04-27 18:51 31.60721 -8.04373 1534 ft 0 kts 217°
2026-04-27 18:51 31.60718 -8.04375 1534 ft 3 kts 214°
2026-04-27 18:51 31.60671 -8.04386 1540 ft 11 kts 185°
2026-04-27 18:52 31.60563 -8.04398 1552 ft 21 kts 186°
2026-04-27 18:52 31.60496 -8.04410 1553 ft 18 kts 187°
2026-04-27 18:52 31.60373 -8.04424 1554 ft 10 kts 186°
2026-04-27 18:53 31.60369 -8.04425 1554 ft 0 kts 186°